Skip Page Navigation
NASA JPL Caltech
NASA Logo - Jet Propulsion Laboratory + View the NASA Portal
+ Center for Near-Earth Object Studies
JPL Home Earth Solar System Stars & Galaxies Technology
JPL Solar System Dynamics
BODIES ORBITS EPHEMERIDES TOOLS PHYSICAL DATA DISCOVERY FAQ SITE MAP
JPL Small-Body Database Browser
Search: [ help ]  
32076 (2000 JA70)
Classification: Main-belt Asteroid          SPK-ID: 2032076
Ephemeris | Orbit Diagram | Orbital Elements | Mission Design | Physical Parameters | Discovery Circumstances | Close-Approach Data ]

[ hide orbit diagram ]

For accurate long-term ephemerides, please instead use our Horizons system.This orbit viewer was implemented using two-body methods, and hence should not be used for determining accurate long-term trajectories (over several years or decades) or planetary encounter circumstances.


[ revert to old Java-based viewer ]

Orbital Elements at Epoch 2459000.5 (2020-May-31.0) TDB
Reference: JPL 20 (heliocentric ecliptic J2000)
 Element Value Uncertainty (1-sigma)   Units 
e .09586492960039296 3.709e-08  
a 2.339289807082177 1.0242e-08 au
q 2.115033954411327 8.4963e-08 au
i 13.17867845844886 3.7428e-06 deg
node 145.8328062631128 1.7934e-05 deg
peri 37.81269085767877 2.7845e-05 deg
M 261.581301101525 2.2982e-05 deg
tp 2459357.772499358437
(2021-May-23.27249936)
8.4508e-05 TDB
period 1306.846170581009
3.58
8.5826e-06
2.35e-08
d
yr
n .2754723609435593 1.8091e-09 deg/d
Q 2.563545659753027 1.1224e-08 au
  Orbit Determination Parameters
   # obs. used (total)      731  
   data-arc span      13288 days (36.38 yr)  
   first obs. used      1983-07-13  
   last obs. used      2019-11-29  
   planetary ephem.      DE431  
   SB-pert. ephem.      SB431-N16  
   condition code      0  
   norm. resid. RMS      .54122  
   source      ORB  
   producer      Otto Matic  
   solution date      2019-Dec-04 01:48:11  

Additional Information
 Earth MOID = 1.13399 au 
 Jupiter MOID = 2.42639 au 
 T_jup = 3.524 
[ show covariance matrix ]

Ephemeris | Orbit Diagram | Orbital Elements | Mission Design | Physical Parameters | Discovery Circumstances | Close-Approach Data ]

Physical Parameter Table
Parameter Symbol Value Units Sigma Reference Notes
absolute magnitude H 15.6   n/a MPO452621  
diameter diameter 3.373 km 0.082 urn:nasa:pds:neowise_diameters_albedos::2.0[mainbelt] (http://adsabs.harvard.edu/abs/2011ApJ...741...68M)  
geometric albedo albedo 0.170   0.014 urn:nasa:pds:neowise_diameters_albedos::2.0[mainbelt] (http://adsabs.harvard.edu/abs/2011ApJ...741...68M)  

32076 (2000 JA70)          Discovered 2000-May-02 by LONEOS at Anderson Mesa
Reference: 20011130/Numbers.arcLast Updated: 2004-04-19

[ show close-approach data ]
Ephemeris | Orbit Diagram | Orbital Elements | Mission Design | Physical Parameters | Discovery Circumstances | Close-Approach Data ]
ABOUT SSD CREDITS/AWARDS PRIVACY/COPYRIGHT GLOSSARY LINKS
FirstGov 2020-Aug-10 22:11 UT
(server date/time)  
NASA Home Page
Site Manager:   Ryan S. Park
Webmaster  Alan B. Chamberlin